Location: Peach Mountain Observatory
(42.3967°N, 83.9367°W)
Time: 07:33:11
(UTC-04:00)

deb Explorer IX - Pass Details

Date: 29 January 2020
Orbit: 547 x 1100 km, 38.8° (Epoch: 06 April)

Event Time Altitude Azimuth Distance (km) Brightness Sun altitude
Rises 01:21:08 0° 277° (W) 3,869 - -64.7°
Reaches altitude 10° 01:24:00 10° 271° (W) 2,939 - -64.5°
Maximum altitude 01:30:46 42° 203° (SSW) 1,504 - -64.1°
Drops below altitude 10° 01:37:23 10° 135° (SE) 2,868 - -63.6°
Sets 01:40:09 0° 129° (SE) 3,767 - -63.3°
